DW8295 Weather Reports


Display with metric or nautical units.
time (UTC)temp
F
wind
direction
speed
MPH
gust
MPH
rain 1hr
in
rain 24hr
in
rain mn
in
humidity
%
barometer
mb
20260902192333 63 74 0.0 2.0 0.00 0.00 0.00 89 1022.0
20260902191830 64 74 0.0 2.0 0.00 0.00 0.00 89 1022.0
20260902191327 64 127 0.0 0.0 0.00 0.00 0.00 89 1021.9
20260902190827 64 127 0.0 2.0 0.00 0.00 0.00 89 1021.8
20260902190327 63 128 0.0 2.0 0.00 0.00 0.00 89 1021.7
20260902185826 63 69 0.0 1.0 0.00 0.00 0.00 90 1021.8
20260902185327 63 69 0.0 0.0 0.00 0.00 0.00 90 1021.8
20260902184821 63 67 0.0 1.0 0.00 0.00 0.00 89 1021.9
20260902184533 63 67 0.0 2.0 0.00 0.00 0.00 90 1022.0
20260902183809 63 67 0.0 2.0 0.00 0.00 0.00 90 1022.0
20260902183533 63 63 0.0 2.0 0.00 0.00 0.00 90 1021.9
20260902182811 63 63 0.0 2.0 0.00 0.00 0.00 90 1022.0
20260902182307 63 119 0.0 4.0 0.00 0.00 0.00 90 1022.0
20260902181805 63 127 0.0 4.0 0.00 0.00 0.00 90 1022.1
20260902181303 63 80 0.0 1.0 0.00 0.00 0.00 89 1022.2
20260902180803 63 80 0.0 1.0 0.00 0.00 0.00 89 1022.2
20260902180530 63 73 0.0 1.0 0.00 0.00 0.00 89 1022.2
20260902175759 63 73 0.0 1.0 0.00 0.00 0.00 88 1022.2
20260902175515 63 82 0.0 2.0 0.00 0.00 0.00 89 1022.0
20260902174753 64 81 0.0 5.0 0.00 0.00 0.00 88 1022.1
20260902174251 64 101 0.0 5.0 0.00 0.00 0.00 87 1021.9
20260902173753 64 103 0.0 2.0 0.00 0.00 0.00 88 1021.9
20260902173251 64 107 0.0 2.0 0.00 0.00 0.00 87 1022.0
20260902172749 64 107 0.0 2.0 0.00 0.00 0.00 88 1022.0
20260902172247 64 154 0.0 2.0 0.00 0.00 0.00 88 1022.0
20260902171748 64 67 0.0 3.0 0.00 0.00 0.00 87 1022.0
20260902171246 64 96 0.0 4.0 0.00 0.00 0.00 87 1022.0
20260902170746 64 119 0.0 4.0 0.00 0.00 0.00 86 1022.0
20260902170450 64 69 0.0 1.0 0.00 0.00 0.00 86 1021.9
20260902170335 64 86 0.0 2.0 0.00 0.00 0.00 86 1022.0
20260902165246 65 136 1.0 5.0 0.00 0.00 0.00 86 1022.0
20260902164743 64 155 1.0 5.0 0.00 0.00 0.00 87 1022.0
20260902164243 64 74 0.0 2.0 0.00 0.00 0.00 88 1022.0
20260902163743 64 74 0.0 4.0 0.00 0.00 0.00 88 1022.0
20260902163243 63 69 0.0 4.0 0.00 0.00 0.00 88 1022.2
20260902162742 64 42 0.0 4.0 0.00 0.00 0.00 87 1022.4
20260902162241 64 57 0.0 4.0 0.00 0.00 0.00 87 1022.4
20260902161741 64 51 0.0 3.0 0.00 0.00 0.00 87 1022.4
20260902161238 64 84 0.0 6.0 0.00 0.00 0.00 87 1022.5
20260902160958 64 95 1.0 6.0 0.00 0.00 0.00 87 1022.5
20260902160237 64 90 1.0 7.0 0.00 0.00 0.00 86 1022.6
20260902155737 64 91 1.0 7.0 0.00 0.00 0.00 86 1022.7
20260902155237 64 113 0.0 3.0 0.00 0.00 0.00 86 1022.6
20260902154737 64 67 0.0 3.0 0.00 0.00 0.00 87 1022.7
20260902154238 64 63 0.0 3.0 0.00 0.00 0.00 86 1022.8
20260902153959 64 61 0.0 4.0 0.00 0.00 0.00 86 1022.8
20260902153238 64 55 0.0 4.0 0.00 0.00 0.00 85 1022.7
20260902152735 64 76 1.0 7.0 0.00 0.00 0.00 85 1022.7
20260902152233 65 120 1.0 7.0 0.00 0.00 0.00 85 1022.7
20260902151733 64 57 0.0 6.0 0.00 0.00 0.00 86 1022.6
20260902151234 64 125 1.0 5.0 0.00 0.00 0.00 86 1022.4
20260902150733 64 80 1.0 5.0 0.00 0.00 0.00 86 1022.3
20260902150234 64 71 1.0 6.0 0.00 0.00 0.00 86 1022.3
20260902145733 64 64 1.0 6.0 0.00 0.00 0.00 86 1022.5
20260902145234 64 89 0.0 7.0 0.00 0.00 0.00 86 1022.4
20260902144734 64 128 0.0 7.0 0.00 0.00 0.00 87 1022.5
20260902144230 64 42 0.0 3.0 0.00 0.00 0.00 87 1022.4
20260902143731 64 40 0.0 2.0 0.00 0.00 0.00 86 1022.6
20260902143229 64 50 0.0 2.0 0.00 0.00 0.00 86 1022.6
20260902142730 64 48 0.0 2.0 0.00 0.00 0.00 86 1022.4
20260902142230 64 72 0.0 4.0 0.00 0.00 0.00 87 1022.3
20260902141729 64 144 1.0 5.0 0.00 0.00 0.00 87 1022.3
20260902141229 64 57 1.0 5.0 0.00 0.00 0.00 86 1022.3
20260902140729 64 58 0.0 3.0 0.00 0.00 0.00 86 1022.2
20260902140229 64 64 0.0 3.0 0.00 0.00 0.00 87 1022.1
20260902135945 64 67 0.0 4.0 0.00 0.00 0.00 88 1022.0
20260902135225 63 76 0.0 4.0 0.00 0.00 0.00 88 1022.0
20260902134725 63 86 0.0 4.0 0.00 0.00 0.00 89 1022.0
20260902134447 63 66 0.0 4.0 0.00 0.00 0.00 90 1022.1
20260902133725 62 76 0.0 4.0 0.00 0.00 0.00 91 1022.0
20260902133221 62 63 0.0 4.0 0.00 0.00 0.00 91 1022.2
20260902132720 62 109 0.0 5.0 0.00 0.00 0.00 93 1022.1
20260902132219 62 63 1.0 5.0 0.00 0.00 0.00 94 1022.0
20260902131717 62 58 1.0 5.0 0.00 0.00 0.00 95 1022.0
20260902131214 62 64 0.0 3.0 0.00 0.00 0.00 95 1021.9
20260902130713 62 72 0.0 1.0 0.00 0.00 0.00 96 1022.0
20260902130213 62 74 0.0 1.0 0.00 0.00 0.00 96 1022.0
20260902125713 62 71 0.0 0.0 0.00 0.00 0.00 96 1021.9
20260902125212 62 72 0.0 0.0 0.00 0.00 0.00 96 1021.9
20260902124710 62 72 0.0 0.0 0.00 0.00 0.00 96 1021.9
20260902124205 62 73 0.0 0.0 0.00 0.00 0.00 96 1022.0
20260902123659 62 73 0.0 0.0 0.00 0.00 0.00 96 1022.0
20260902123154 62 74 0.0 1.0 0.00 0.00 0.00 97 1021.8
20260902122648 62 74 0.0 1.0 0.00 0.00 0.00 96 1021.9
20260902122139 62 74 0.0 0.0 0.00 0.00 0.00 96 1022.0
20260902121632 62 75 0.0 0.0 0.00 0.00 0.00 96 1022.1
20260902121127 62 122 0.0 0.0 0.00 0.00 0.00 96 1022.1
20260902120620 62 122 0.0 0.0 0.00 0.00 0.00 96 1022.0
20260902120114 62 122 0.0 0.0 0.00 0.00 0.00 96 1022.1
20260902115608 62 122 0.0 0.0 0.00 0.00 0.00 96 1022.0
20260902115102 62 122 0.0 0.0 0.00 0.00 0.00 97 1022.0
20260902114603 62 122 0.0 0.0 0.00 0.00 0.00 96 1022.0
20260902114101 61 122 0.0 0.0 0.00 0.00 0.00 97 1022.0
20260902113559 61 122 0.0 0.0 0.00 0.00 0.00 97 1021.8
20260902113316 61 122 0.0 0.0 0.00 0.00 0.00 97 1021.7
20260902112558 61 122 0.0 0.0 0.00 0.00 0.00 96 1021.7
20260902112057 61 122 0.0 0.0 0.00 0.00 0.00 96 1021.6
20260902111557 61 122 0.0 0.0 0.00 0.00 0.00 96 1021.6
20260902111056 61 122 0.0 0.0 0.00 0.00 0.00 96 1021.2
20260902110545 61 122 0.0 0.0 0.00 0.00 0.00 96 1021.2
20260902110234 61 122 0.0 0.0 0.00 0.00 0.00 96 1021.2
20260902105459 61 122 0.0 0.0 0.00 0.00 0.00 96 1021.1
20260902104946 61 122 0.0 0.0 0.00 0.00 0.00 96 1021.3
20260902104652 61 122 0.0 0.0 0.00 0.00 0.00 96 1021.3
20260902103924 61 124 0.0 0.0 0.00 0.00 0.00 96 1021.3
20260902103418 61 125 0.0 0.0 0.00 0.00 0.00 96 1021.4
20260902102912 61 130 0.0 0.0 0.00 0.00 0.00 96 1021.4
20260902102407 61 128 0.0 0.0 0.00 0.00 0.00 96 1021.4
20260902101900 61 128 0.0 0.0 0.00 0.00 0.00 96 1021.4
20260902101354 61 128 0.0 0.0 0.00 0.00 0.00 96 1021.4
20260902100848 61 128 0.0 0.0 0.00 0.00 0.00 96 1021.4
20260902100343 61 128 0.0 0.0 0.00 0.00 0.00 96 1021.5
20260902095836 61 128 0.0 0.0 0.00 0.00 0.00 96 1021.4
20260902095331 61 128 0.0 0.0 0.00 0.00 0.00 96 1021.4
20260902094824 61 128 0.0 0.0 0.00 0.00 0.00 96 1021.4
20260902094319 61 128 0.0 0.0 0.00 0.00 0.00 96 1021.4
20260902094036 61 128 0.0 0.0 0.00 0.00 0.00 96 1021.3
20260902093308 61 128 0.0 0.0 0.00 0.00 0.00 96 1021.3
20260902092800 61 128 0.0 0.0 0.00 0.00 0.00 96 1021.3
20260902092512 61 128 0.0 0.0 0.00 0.00 0.00 96 1021.2
20260902091749 61 128 0.0 0.0 0.00 0.00 0.00 96 1021.1
20260902091243 61 128 0.0 0.0 0.00 0.00 0.00 96 1021.1
20260902090737 61 128 0.0 0.0 0.00 0.00 0.00 96 1021.1
20260902090230 61 128 0.0 0.0 0.00 0.00 0.00 96 1021.1
20260902085924 61 137 0.0 0.0 0.00 0.00 0.00 96 1021.1
20260902085809 61 128 0.0 0.0 0.00 0.00 0.00 96 1021.1
20260902084712 61 137 0.0 0.0 0.00 0.00 0.00 96 1021.1
20260902084207 61 137 0.0 0.0 0.00 0.00 0.00 96 1021.2
20260902083700 61 137 0.0 0.0 0.00 0.00 0.00 96 1021.1
20260902083412 61 137 0.0 0.0 0.00 0.00 0.00 96 1021.2
20260902082649 61 137 0.0 0.0 0.00 0.00 0.00 96 1021.2
20260902082142 61 136 0.0 0.0 0.00 0.00 0.00 96 1021.2
20260902081637 61 136 0.0 0.0 0.00 0.00 0.00 96 1021.3
20260902081132 61 136 0.0 0.0 0.00 0.00 0.00 96 1021.1
20260902080624 61 137 0.0 0.0 0.00 0.00 0.00 96 1021.0
20260902080118 61 137 0.0 0.0 0.00 0.00 0.00 96 1020.9
20260902075614 61 137 0.0 0.0 0.00 0.00 0.00 96 1020.9
20260902075108 61 137 0.0 0.0 0.00 0.00 0.00 96 1020.9
20260902074600 61 137 0.0 0.0 0.00 0.00 0.00 96 1020.9
20260902074537 61 137 0.0 0.0 0.00 0.00 0.00 96 1020.7
20260902073549 61 137 0.0 0.0 0.00 0.00 0.00 96 1020.6
20260902073042 61 137 0.0 0.0 0.00 0.00 0.00 96 1020.6
20260902072536 61 137 0.0 0.0 0.00 0.00 0.00 96 1020.6
20260902072030 61 137 0.0 0.0 0.00 0.00 0.00 96 1020.5
20260902071524 61 136 0.0 0.0 0.00 0.00 0.00 96 1020.5
20260902071019 61 136 0.0 0.0 0.00 0.00 0.00 96 1020.4
20260902070513 62 136 0.0 0.0 0.00 0.00 0.00 96 1020.4
20260902070007 62 136 0.0 0.0 0.00 0.00 0.00 96 1020.3
20260902065954 62 136 0.0 0.0 0.00 0.00 0.00 96 1020.3
20260902064955 62 136 0.0 0.0 0.00 0.00 0.00 96 1020.4
20260902064708 62 136 0.0 0.0 0.00 0.00 0.00 96 1020.5
20260902063942 62 136 0.0 0.0 0.00 0.00 0.00 96 1020.5
20260902063437 62 136 0.0 0.0 0.00 0.00 0.00 96 1020.5
20260902062931 62 136 0.0 0.0 0.00 0.00 0.00 96 1020.5
20260902062424 62 137 0.0 0.0 0.00 0.00 0.00 96 1020.6
20260902061920 62 148 0.0 0.0 0.00 0.00 0.00 96 1020.6
20260902061459 62 148 0.0 0.0 0.00 0.00 0.00 96 1020.6
20260902060400 62 148 0.0 0.0 0.00 0.00 0.00 95 1020.5
20260902055855 62 148 0.0 0.0 0.00 0.00 0.00 96 1020.5
20260902055348 62 148 0.0 0.0 0.00 0.00 0.00 95 1020.4
20260902055108 62 148 0.0 0.0 0.00 0.00 0.00 95 1020.4
20260902054604 62 148 0.0 0.0 0.00 0.00 0.00 95 1020.1
20260902054323 62 148 0.0 0.0 0.00 0.00 0.00 95 1020.0
20260902053325 62 148 0.0 0.0 0.00 0.00 0.00 95 1020.0
20260902053037 62 148 0.0 0.0 0.00 0.00 0.00 95 1020.0
20260902052312 62 148 0.0 0.0 0.00 0.00 0.00 95 1019.9
20260902052259 62 148 0.0 0.0 0.00 0.00 0.00 95 1020.0
20260902051300 62 148 0.0 0.0 0.00 0.00 0.00 96 1019.8
20260902050755 62 148 0.0 0.0 0.00 0.00 0.00 96 1019.7
20260902050250 62 148 0.0 0.0 0.00 0.00 0.00 96 1019.6
20260902045749 62 148 0.0 0.0 0.00 0.00 0.00 95 1019.7
20260902045249 62 148 0.0 0.0 0.00 0.00 0.00 95 1019.6
20260902044748 62 148 0.0 0.0 0.00 0.00 0.00 95 1019.7
20260902044250 62 148 0.0 0.0 0.00 0.00 0.00 95 1019.7
20260902043749 62 148 0.0 0.0 0.00 0.00 0.00 95 1019.5
20260902043247 62 148 0.0 0.0 0.00 0.00 0.00 95 1019.4
20260902042746 62 148 0.0 0.0 0.00 0.00 0.00 95 1019.4
20260902042731 62 148 0.0 0.0 0.00 0.00 0.00 95 1019.3
20260902041744 62 148 0.0 0.0 0.00 0.00 0.00 95 1019.4
20260902041243 62 148 0.0 0.0 0.00 0.00 0.00 95 1019.4
20260902040743 62 148 0.0 0.0 0.00 0.00 0.00 95 1019.5
20260902040242 62 148 0.0 0.0 0.00 0.00 0.00 95 1019.5
20260902035741 62 148 0.0 0.0 0.00 0.00 0.00 95 1019.5
20260902035240 62 148 0.0 0.0 0.00 0.00 0.00 95 1019.5
20260902034739 62 148 0.0 0.0 0.00 0.00 0.00 95 1019.5
20260902034238 62 148 0.0 0.0 0.00 0.00 0.00 95 1019.4
20260902033738 62 148 0.0 0.0 0.00 0.00 0.00 95 1019.4
20260902033239 62 148 0.0 0.0 0.00 0.00 0.00 95 1019.2
20260902033226 62 148 0.0 0.0 0.00 0.00 0.00 95 1019.2
20260902032232 62 148 0.0 0.0 0.00 0.00 0.00 95 1019.0
20260902031733 62 148 0.0 0.0 0.00 0.00 0.00 95 1018.9
20260902031232 62 148 0.0 0.0 0.00 0.00 0.00 95 1018.8
20260902030733 62 148 0.0 0.0 0.00 0.00 0.00 95 1018.8
20260902030232 62 148 0.0 0.0 0.00 0.00 0.00 95 1018.8
20260902025733 62 148 0.0 0.0 0.00 0.00 0.00 95 1018.8
20260902025230 62 148 0.0 0.0 0.00 0.00 0.00 95 1018.7
20260902024730 62 148 0.0 0.0 0.00 0.00 0.00 95 1018.8
20260902024230 62 148 0.0 0.0 0.00 0.00 0.00 95 1018.8
20260902023731 63 148 0.0 0.0 0.00 0.00 0.00 95 1019.0
20260902023709 63 148 0.0 0.0 0.00 0.00 0.00 95 1018.9
20260902022726 62 148 0.0 0.0 0.00 0.00 0.00 95 1018.9
20260902022226 63 148 0.0 0.0 0.00 0.00 0.00 95 1018.7
20260902021726 63 148 0.0 0.0 0.00 0.00 0.00 95 1018.7
20260902021226 63 148 0.0 0.0 0.00 0.00 0.00 95 1018.8
20260902020729 63 148 0.0 0.0 0.00 0.00 0.00 95 1018.8
20260902020227 63 148 0.0 0.0 0.00 0.00 0.00 95 1018.8
20260902015728 63 148 0.0 0.0 0.00 0.00 0.00 95 1018.9
20260902015227 63 148 0.0 0.0 0.00 0.00 0.00 95 1019.0
20260902014726 63 147 0.0 0.0 0.00 0.00 0.00 95 1019.1
20260902014226 63 148 0.0 0.0 0.00 0.00 0.00 95 1019.0
20260902013728 63 147 0.0 0.0 0.00 0.00 0.00 95 1019.0
20260902013226 63 148 0.0 0.0 0.00 0.00 0.00 95 1019.0
20260902012953 63 148 0.0 0.0 0.00 0.00 0.00 95 1018.9
20260902012448 63 148 0.0 0.0 0.00 0.00 0.00 95 1018.8
20260902011726 63 147 0.0 0.0 0.00 0.00 0.00 95 1018.8
20260902011226 63 147 0.0 0.0 0.00 0.00 0.00 94 1018.8
20260902010726 63 147 0.0 0.0 0.00 0.00 0.00 94 1018.7
20260902010450 63 147 0.0 0.0 0.00 0.00 0.00 94 1018.7
20260902005726 63 148 0.0 0.0 0.00 0.00 0.00 94 1018.7
20260902005228 63 147 0.0 0.0 0.00 0.00 0.00 94 1018.6
20260902004727 63 147 0.0 0.0 0.00 0.00 0.00 94 1018.6
20260902004226 63 148 0.0 0.0 0.00 0.00 0.00 94 1018.6
20260902003727 64 147 0.0 0.0 0.00 0.00 0.00 94 1018.6
20260902003226 64 148 0.0 0.0 0.00 0.00 0.00 94 1018.4
20260902002952 64 147 0.0 0.0 0.00 0.00 0.00 94 1018.3
20260902002227 64 148 0.0 0.0 0.00 0.00 0.00 94 1018.3
20260902001726 64 147 0.0 0.0 0.00 0.00 0.00 93 1018.3
20260902001226 64 147 0.0 0.0 0.00 0.00 0.00 94 1018.3
20260902000726 64 147 0.0 0.0 0.00 0.00 0.00 93 1018.3
20260902000226 64 147 0.0 0.0 0.00 0.00 0.00 93 1018.3
20260901235726 64 148 0.0 0.0 0.00 0.00 0.00 93 1018.3
20260901235451 64 148 0.0 0.0 0.00 0.00 0.00 93 1018.2
20260901234955 64 147 0.0 0.0 0.00 0.00 0.00 93 1018.3
20260901234226 64 147 0.0 0.0 0.00 0.00 0.00 93 1018.3
20260901233224 64 147 0.0 0.0 0.00 0.00 0.00 93 1018.2
20260901232938 64 147 0.0 0.0 0.00 0.00 0.00 93 1018.2
20260901232213 64 148 0.0 0.0 0.00 0.00 0.00 93 1018.2
20260901231706 64 148 0.0 0.0 0.00 0.00 0.00 93 1018.2
20260901231200 64 147 0.0 0.0 0.00 0.00 0.00 93 1018.2
20260901230654 65 148 0.0 0.0 0.00 0.00 0.00 93 1018.1
20260901230147 65 147 0.0 0.0 0.00 0.00 0.00 92 1018.1
20260901225641 65 153 0.0 0.0 0.00 0.00 0.00 92 1018.0
20260901225135 65 153 0.0 0.0 0.00 0.00 0.00 92 1017.9
20260901224628 65 153 0.0 0.0 0.00 0.00 0.00 92 1017.8
20260901224123 65 153 0.0 0.0 0.00 0.00 0.00 92 1017.9
20260901223836 65 153 0.0 0.0 0.00 0.00 0.00 92 1017.9
20260901223111 65 153 0.0 0.0 0.00 0.00 0.00 92 1018.0
20260901222604 65 153 0.0 0.0 0.00 0.00 0.00 92 1017.9
20260901222058 65 153 0.0 0.0 0.00 0.00 0.00 92 1018.0
20260901221554 65 153 0.0 0.0 0.00 0.00 0.00 92 1018.0
20260901221312 65 153 0.0 0.0 0.00 0.00 0.00 92 1017.9
20260901220803 65 153 0.0 0.0 0.00 0.00 0.00 92 1017.9
20260901220035 65 153 0.0 0.0 0.00 0.00 0.00 92 1017.8
20260901215528 65 153 0.0 1.0 0.00 0.00 0.00 92 1017.9
20260901215023 65 153 0.0 2.0 0.00 0.00 0.00 92 1017.9
20260901214516 66 150 0.0 2.0 0.00 0.00 0.00 91 1017.8
20260901214011 66 144 0.0 0.0 0.00 0.00 0.00 91 1017.9
20260901213505 66 144 0.0 0.0 0.00 0.00 0.00 91 1017.7
20260901212959 66 144 0.0 0.0 0.00 0.00 0.00 91 1017.6
20260901212453 66 144 0.0 0.0 0.00 0.00 0.00 91 1017.6
20260901211947 66 145 0.0 0.0 0.00 0.00 0.00 91 1017.6
20260901211441 66 144 0.0 0.0 0.00 0.00 0.00 91 1017.6
20260901210935 66 144 0.0 0.0 0.00 0.00 0.00 91 1017.6
20260901210430 66 144 0.0 0.0 0.00 0.00 0.00 91 1017.6
20260901205923 66 144 0.0 2.0 0.00 0.00 0.00 91 1017.6
20260901205417 66 144 0.0 2.0 0.00 0.00 0.00 90 1017.6
20260901204910 66 139 0.0 2.0 0.00 0.00 0.00 90 1017.5
20260901204405 66 139 0.0 2.0 0.00 0.00 0.00 90 1017.3
20260901203858 66 59 0.0 0.0 0.00 0.00 0.00 90 1017.2
20260901203352 67 59 0.0 0.0 0.00 0.00 0.00 90 1017.2
20260901203104 67 59 0.0 0.0 0.00 0.00 0.00 89 1017.2
20260901202340 67 46 0.0 0.0 0.00 0.00 0.00 89 1017.2
20260901201835 67 45 0.0 0.0 0.00 0.00 0.00 89 1017.2
20260901201329 67 45 0.0 1.0 0.00 0.00 0.00 89 1017.2
20260901201053 67 88 0.0 1.0 0.00 0.00 0.00 89 1017.1
20260901200534 67 82 0.0 1.0 0.00 0.00 0.00 88 1017.2
20260901195811 67 81 0.0 1.0 0.00 0.00 0.00 88 1017.2
20260901195306 67 80 0.0 1.0 0.00 0.00 0.00 89 1017.2
20260901194759 67 79 0.0 0.0 0.00 0.00 0.00 89 1017.2
20260901194253 66 80 0.0 1.0 0.00 0.00 0.00 89 1017.4
20260901193747 66 80 0.0 4.0 0.00 0.00 0.00 89 1017.5
20260901193240 66 80 0.0 4.0 0.00 0.00 0.00 88 1017.5